Location: Holyhead Bay
(53.3667°N, 4.6667°W)
Time: 10:23:28
(UTC+00:00)

Cosmos 2360 Rocket - Pass Details

Date: 19 April 2021
Orbit: 833 x 845 km, 71.0° (Epoch: 08 May)

Event Time Altitude Azimuth Distance (km) Brightness Sun altitude
Rises 20:16:08 0° 321° (NW) 3,415 6.9 -7.4°
Reaches altitude 10° 20:19:03 10° 308° (NW) 2,473 6.4 -7.8°
Maximum altitude 20:23:23 23° 258° (WSW) 1,714 4.4 -8.4°
Drops below altitude 10° 20:27:42 10° 207° (SSW) 2,454 4.6 -8.9°
Sets 20:30:35 0° 194° (SSW) 3,381 5.1 -9.3°
